Regional Weather Roundup
Issued by NWS

Home | Current Version | Previous Version | Graphics & Text | Print | Product List | Glossary Off
Versions: 1 2 3 4 5 6 7 8 9 10 11 12 13 14 15 16 17 18 19 20 21 22 23 24 25 26 27 28 29 30 31 32 33 34 35 36 37 38 39 40 41 42 43 44 45 46 47 48 49 50

000
ASUS43 KMPX 230910
RWRMN
WEATHER ROUNDUP FOR MINNESOTA
NATIONAL WEATHER SERVICE TWIN CITIES/CHANHASSEN MN
300 AM CST FRI FEB 23 2018


NOTE: "FAIR" INDICATES FEW OR NO CLOUDS BELOW 12,000 FEET WITH NO
SIGNIFICANT WEATHER AND/OR OBSTRUCTIONS TO VISIBILITY. N/A MEANS
CURRENT SKY AND/OR WEATHER CONDITIONS ARE NOT AVAILABLE.

MNZ060>063-068>070-231000-
   Twin Cities Metro

CITY           SKY/WX    TMP DP  RH WIND       PRES   REMARKS
TWIN CITIES    LGT SNOW  26  26 100 E7        30.05F FOG     WCI  18
ST PAUL        LGT SNOW  26  25  96 SE6       30.08F FOG     WCI  19
CRYSTAL        LGT SNOW  26  23  88 CALM      30.06F FOG
BLAINE         MIX PCPN  27  27 100 E5        30.06F WCI  21
LAKEVILLE      LGT SNOW  25  25 100 E3        30.05F
EDEN PRAIRIE   LGT SNOW  26  24  92 E5        30.04F FOG     WCI  20
SOUTH ST PAUL  LGT SNOW  27  27  97 CALM      30.07F
LAKE ELMO      LGT SNOW  27  27 100 E3        30.08F
$$
MNZ001>005-007-008-013>017-022>024-027-028-231000-
   Northwest Minnesota

CITY           SKY/WX    TMP DP  RH WIND       PRES   REMARKS
BEMIDJI        LGT SNOW  19  18  93 CALM      30.09F
HALLOCK        FAIR      10   9  92 CALM      30.17F
ROSEAU         MOCLDY    12   9  85 CALM      30.16F
WARROAD        FAIR      12   9  85 CALM      30.16F
THIEF RVR FALL LGT SNOW  17  14  88 CALM      30.15F FOG
CROOKSTON      LGT SNOW  18  16  93 CALM      30.17F
FOSSTON        LGT SNOW  19  16  86 N5        30.12F WCI  13
DETROIT LAKES  LGT SNOW  21  21 100 CALM      30.09F
MOORHEAD       LGT SNOW  19  18  93 N6        30.14F WCI  11
PARK RAPIDS    LGT SNOW  20  17  88 NE3       30.07F VSB 1
MAHNOMEN       LGT SNOW  20  19  93 N6        30.11F WCI  13
$$
MNZ006-009>011-018-025>026-231000-
   North Central Minnesota

CITY           SKY/WX    TMP DP  RH WIND       PRES   REMARKS
BAUDETTE       LGT SNOW  17   9  70 CALM      30.14F
FLAG ISLAND    CLOUDY     9   3  78 CALM      30.15F
INTL FALLS     LGT SNOW  21  19  92 NE3       30.14F FOG
WASKISH        LGT RAIN  19  18  93 CALM      30.13F
BIG FORK       LGT SNOW  21  19  93 CALM      30.11F
LONGVILLE      LGT SNOW  19  18  93 CALM      30.09F
GRAND RAPIDS   LGT SNOW  20  18  92 CALM      30.10F FOG
CRANE LAKE     LGT SNOW  19  18  93 CALM      30.17F VSB 1
ORR            LGT SNOW  19  16  86 CALM      30.10F
COOK           LGT SNOW  19  18  93 CALM      30.11F VSB 1
WALKER         LGT SNOW  19  17  93 CALM      30.09F
$$
MNZ012-019>021-037-231000-
   Northeast Minnesota

CITY           SKY/WX    TMP DP  RH WIND       PRES   REMARKS
DULUTH         LGT SNOW  24  20  84 E13       30.07F VSB 1   WCI  12
ELY            LGT SNOW  18  18 100 CALM      30.13F VSB 1
HIBBING        LGT SNOW  19  17  92 NE3       30.09F VSB 1
EVELETH        LGT SNOW  21  18  86 NE6       30.10F WCI  14
DULUTH HARBOR  LGT SNOW  27  25  93 E15       30.14F WCI  15
TWO HARBORS    LGT SNOW  25  19  80 NE7       30.10F WCI  17
SILVER BAY     LGT SNOW  21  21 100 N5        30.12F VSB 1   WCI  15
GRAND MARAIS     N/A     26  23  88 NE8       30.18F WCI  18
G MARAIS ARPRT LGT SNOW  19  14  79 NE6       30.12F VSB 1   WCI  11
$$
MNZ029>031-032-039>041-046>048-054>057-064-231000-
   West Central Minnesota

CITY           SKY/WX    TMP DP  RH WIND       PRES   REMARKS
FERGUS FALLS   LGT SNOW  19  18  93 NE6       30.10F WCI  11
WHEATON        LGT SNOW  19  18  93 N3        30.12F
MORRIS         LGT SNOW  21  19  93 W3        30.08F
ALEXANDRIA     LGT SNOW  20  18  92 NW3       30.07F FOG
ELBOW LAKE     LGT SNOW  20  19  95 NE3       30.10F
WADENA         LGT SNOW  19  18  93 N5        30.07F WCI  13
GLENWOOD       LGT SNOW  21  19  93 CALM      30.07F
APPLETON       MIX PCPN  23  21  93 NW3       30.09F
BENSON         LGT SNOW  23  19  86 CALM      30.10S
ORTONVILLE     LGT SNOW  19  18  93 N3        30.09F
MADISON        CLOUDY    25  21  86 NW3       30.10F FOG
WILLMAR        CLOUDY    23  21  93 CALM      30.09F
$$
MNZ033>034-036-042>043-049>051-058-059-231000-
   Central Minnesota

CITY           SKY/WX    TMP DP  RH WIND       PRES   REMARKS
ST CLOUD       CLOUDY    23  22  96 E3        30.07F FOG
SAUK CENTRE    LGT SNOW  21  20  95 CALM      30.07F
PAYNESVILLE    MIX PCPN  24  23  98 CALM      30.07F
AITKIN         LGT SNOW  19  18  93 CALM      30.07F VSB 3/4
PINE RIVER     LGT SNOW  19  18  93 CALM      30.11F
BRAINERD       LGT SNOW  22  18  85 NE5       30.07F FOG     WCI  16
STAPLES        LGT SNOW  19  18  93 CALM      30.07F
LONG PRAIRIE   LGT SNOW  21  19  93 NW3       30.06F
LITTLE FALLS   LGT SNOW  25  21  86 CALM      30.07F
LITCHFIELD     MIX PCPN  25  25 100 CALM      30.07F
BUFFALO        LGT SNOW  25  23  92 CALM      30.08S
MAPLE LAKE     LGT SNOW  26  25  96 CALM      30.07S
HUTCHINSON     CLOUDY    26  25  96 CALM      30.07F
$$
MNZ037-044-045-052-053-231000-
   East Central Minnesota

CITY           SKY/WX    TMP DP  RH WIND       PRES   REMARKS
PRINCETON      LGT SNOW  25  23  93 CALM      30.07F
CAMBRIDGE      LGT SNOW  27  21  80 CALM      30.08F
RUSH CITY      LGT SNOW  25  23  93 CALM      30.07F
MOOSE LAKE     LGT SNOW  23  19  86 NE5       30.07F WCI  17
HINCKLEY       LGT SNOW  27  27 100 E5        30.08F WCI  21
CLOQUET        LGT SNOW  23  19  86 E8        30.07F WCI  14
MCGREGOR       CLOUDY    23  21  93 CALM      30.09F VSB 3/4
$$
MNZ071>073-080-081-089-090-097-098-231000-
   Southwest Minnesota

CITY           SKY/WX    TMP DP  RH WIND       PRES   REMARKS
MONTEVIDEO     CLOUDY    23  23 100 CALM      30.09S FOG
GRANITE FALLS  CLOUDY    25  23  93 CALM      30.09F
CANBY          CLOUDY    21  20  95 NW7       30.10F FOG     WCI  13
MARSHALL       CLOUDY    22  20  92 W9        30.08F WCI  12
REDWOOD FALLS  CLOUDY    24  24 100 SW3       30.08F
OLIVIA         CLOUDY    27  23  86 CALM      30.07F
PIPESTONE      MOCLDY    19  18  93 W9        30.07F WCI   9
WORTHINGTON    LGT SNOW  23  21  92 W14       30.09R FOG     WCI  11
JACKSON        CLOUDY    27  23  86 W14       30.08S WCI  15
TRACY          CLOUDY    26  24  92 W7        30.07S WCI  18
SLAYTON        CLOUDY    23  22  95 W13       30.07F WCI  11
$$
MNZ065>067-074>077-082>085-091>093-231000-
   South Central Minnesota

CITY           SKY/WX    TMP DP  RH WIND       PRES   REMARKS
MANKATO        LGT SNOW  28  28 100 SW6       30.07S FOG     WCI  22
NEW ULM        CLOUDY    25  25 100 SW5       30.07F FOG     WCI  19
ST JAMES       CLOUDY    27  27 100 SW10      30.09F WCI  17
FAIRMONT       CLOUDY    28  27  93 W16       30.08F WCI  17
GLENCOE        LGT SNOW  27  27 100 E5        30.06S WCI  21
FARIBAULT      MIX PCPN  28  28 100 CALM      30.06F
OWATONNA       MIX PCPN  30  28  93 CALM      30.05F
WASECA         CLOUDY    30  28  93 S3        30.07S FOG
ALBERT LEA     MIX PCPN  30  30 100 CALM      30.06S
$$
MNZ078>079-086>088-094>096-231000-
   Southeast Minnesota

CITY           SKY/WX    TMP DP  RH WIND       PRES   REMARKS
ROCHESTER      LGT SNOW  31  31 100 S7        30.04F VSB 1   WCI  24
RED WING       LGT SNOW  28  27  93 E3        30.08S VSB 1
STANTON        LGT SNOW  29  28  93 CALM      30.04F
DODGE CENTER   LGT SNOW  30  30 100 SE3       30.03F VSB 3/4
WINONA         LGT SNOW  32  30  93 SE3       30.07F
AUSTIN         LGT SNOW  32  30  93 S3        30.05F VSB 3/4
PRESTON        LGT RAIN  31  30  96 SE7       30.05F VSB 1/2 WCI  24
$$
ABBREVIATIONS USED IN REMARKS
   TC - TEMPERATURES IN CELSIUS
  WCI - WIND CHILL INDEX
   HX - HEAT INDEX
  VSB - VISIBILITY
$$




USA.gov is the U.S. government's official web portal to all federal, state and local government web resources and services.